Wind_Speed
19 18 18 18 18 19 19 19 19 19 19 18 18 18 18 18 18 18 18 17 17 16 16 16 16 15 15 14 13 12 11 10 10 9 7 6 4 5 8 9 7 6 5 4 5 5 5 6 7 7 6 6 5 5 4 4 5 9 11 14 16 17 17 16 15 13 12 12 11 10 9 9 9 9 8 8 9 9 11 12 13 13 14 14 13
19 18 18 19 19 19 19 19 19 19 19 18 19 19 19 18 18 18 17 17 17 16 16 16 16 15 14 13 12 11 10 9 9 8 7 5 4 5 7 9 8 7 5 4 5 5 6 7 8 7 7 6 6 5 4 4 5 9 11 14 16 17 17 16 15 14 13 12 10 9 8 8 9 9 9 9 9 9 11 12 12 13 13 13 13
19 19 18 19 19 20 20 20 20 19 19 19 19 19 19 19 18 18 17 17 17 17 16 16 16 15 14 13 12 11 10 9 8 7 6 5 4 4 7 9 8 7 5 4 4 5 6 8 9 7 7 7 6 6 4 4 5 9 12 14 16 17 17 16 15 14 13 12 10 10 9 8 9 9 9 9 9 10 11 11 12 12 13 13 12
20 19 19 18 18 19 20 20 20 20 19 19 20 19 19 18 18 17 17 17 16 16 16 16 15 15 14 13 12 11 10 9 8 7 6 5 5 4 6 8 9 7 6 4 4 6 6 8 9 8 8 8 7 6 4 4 6 9 12 14 16 17 17 16 15 15 14 12 10 9 9 8 9 9 9 9 10 10 11 11 11 12 12 12 12
21 20 19 18 18 19 20 20 21 20 20 20 20 20 19 18 18 17 17 16 16 16 16 16 15 14 14 13 12 11 10 9 8 8 7 6 5 5 5 8 10 9 7 6 5 6 7 9 10 8 8 8 8 7 5 4 6 9 12 14 16 17 16 16 15 15 13 12 10 9 9 8 9 9 9 9 10 10 11 11 11 12 12 12 12
22 20 19 18 18 19 20 21 21 21 20 20 20 20 19 19 18 17 16 16 16 16 16 15 15 14 13 12 11 11 10 9 7 8 9 7 6 6 5 7 10 11 9 8 6 6 7 9 10 9 9 9 9 8 6 5 5 9 12 14 16 16 16 16 16 15 14 12 11 9 8 8 9 9 9 9 10 10 11 11 11 11 12 12 12
23 21 21 20 19 20 20 21 21 21 21 21 21 20 20 19 18 17 16 16 15 15 16 15 15 14 13 12 10 10 9 8 7 8 9 9 7 7 6 7 9 12 12 10 8 7 7 9 10 9 10 10 10 9 7 5 5 8 12 15 16 17 17 16 16 15 14 13 12 10 9 8 8 9 9 9 10 10 10 11 11 11 11 11 11
23 22 22 21 21 20 21 21 21 22 22 21 21 21 21 19 17 16 16 15 15 15 16 15 15 14 13 11 10 9 8 7 6 7 9 10 8 7 8 8 9 12 14 12 10 8 8 9 10 10 10 11 10 10 8 6 5 8 12 15 16 17 17 17 16 16 15 14 13 11 10 9 9 9 9 9 9 10 10 11 11 11 11 11 11
23 22 22 21 21 21 21 21 21 22 22 22 22 22 21 19 17 16 15 15 15 16 15 15 14 13 12 11 9 8 7 6 6 6 8 9 9 8 9 9 10 12 14 14 12 10 9 10 10 10 11 11 11 10 9 7 5 7 11 15 17 18 18 17 17 16 15 14 14 13 12 11 10 10 10 9 9 10 10 10 10 10 10 10 11
22 22 22 23 23 22 22 21 21 21 22 22 22 23 21 19 17 16 15 16 16 16 15 15 14 13 11 10 8 8 8 7 6 6 7 8 9 10 10 10 11 13 15 15 14 12 10 10 10 10 11 12 12 11 10 8 6 6 10 14 17 19 19 18 17 17 16 15 14 13 13 13 12 11 10 10 9 10 10 10 10 10 10 10 10
22 23 23 24 24 23 22 21 21 21 23 23 23 23 21 18 17 16 15 16 16 16 15 14 14 12 10 9 8 8 9 9 7 7 7 9 10 11 11 10 11 13 15 16 15 14 12 11 10 10 11 13 13 12 11 9 7 6 9 13 17 19 20 20 18 17 17 16 14 14 14 14 13 12 11 10 10 10 10 10 10 10 10 10 10
23 24 24 24 24 23 22 21 21 22 23 24 24 22 20 18 17 16 16 16 16 16 15 14 13 11 10 9 9 10 10 10 9 9 9 10 11 12 12 11 12 13 15 16 16 15 13 11 11 11 11 13 14 13 13 11 8 6 8 12 16 19 20 20 19 18 18 16 15 14 14 14 14 13 12 11 10 10 10 10 10 10 10 10 10
24 24 25 25 25 24 23 22 22 23 23 24 24 21 20 18 17 17 16 16 16 16 15 14 12 11 10 10 10 11 11 12 12 12 12 12 13 12 13 13 12 13 15 16 16 16 15 13 12 11 11 13 14 15 14 12 9 7 7 10 15 18 20 20 20 19 18 18 16 15 15 15 15 14 13 11 11 10 10 10 10 10 10 10 10
25 25 25 25 25 24 23 22 22 23 24 24 23 21 20 18 17 17 16 16 16 16 15 13 12 11 11 11 12 12 12 13 13 14 14 15 14 13 14 14 12 12 14 16 16 17 17 14 13 12 12 14 16 16 16 13 10 8 7 9 13 17 20 21 20 20 19 19 18 17 16 15 15 15 14 12 11 11 10 10 10 10 10 10 9
25 25 25 25 25 24 23 23 23 24 24 23 22 21 20 19 18 18 17 17 16 16 15 13 12 12 12 12 13 14 14 14 15 15 16 16 15 13 13 13 12 12 14 16 17 18 18 16 14 13 12 14 16 18 17 15 11 9 8 9 12 16 20 21 21 21 20 19 19 18 17 16 16 16 15 14 12 11 10 10 10 9 9 9 9
24 24 24 24 23 23 23 23 23 24 24 22 21 21 20 19 19 19 18 17 17 16 15 14 13 12 13 13 14 15 15 16 16 17 16 15 14 12 11 12 12 12 13 15 17 18 18 17 16 14 13 15 17 18 18 16 13 10 10 10 11 15 19 22 22 21 21 20 20 19 18 17 17 17 16 15 13 12 11 10 10 9 9 9 8
23 23 24 23 22 22 22 23 24 24 23 21 21 20 19 19 19 20 18 18 18 16 14 14 13 13 14 14 15 16 16 17 18 17 16 15 13 11 11 12 12 12 13 15 16 17 18 18 18 16 14 15 17 19 19 17 15 12 11 10 11 15 19 22 23 23 22 21 20 20 20 19 18 18 18 16 15 14 12 11 10 9 9 8 8
21 21 22 23 22 22 22 23 24 23 21 20 20 19 18 19 19 18 18 19 18 15 14 14 14 15 16 16 16 16 17 18 18 17 16 14 12 11 11 12 12 12 12 14 16 17 18 19 20 18 15 15 18 20 21 19 17 14 11 11 12 14 18 22 23 23 23 21 21 21 21 20 19 19 18 17 16 14 13 12 10 9 8 8 8
17 18 20 22 23 23 23 23 22 21 19 19 18 18 18 18 18 17 18 19 17 15 16 15 15 16 17 17 16 16 17 18 18 16 15 13 12 12 11 11 12 12 12 13 15 17 18 18 21 20 16 15 18 21 22 21 18 15 13 11 12 14 17 21 23 24 23 22 21 21 21 20 20 18 18 17 16 15 13 12 11 10 9 8 8
16 17 19 21 23 23 24 23 21 19 18 17 17 17 17 17 17 17 18 20 18 17 18 16 16 16 17 17 16 15 16 17 17 15 14 13 12 11 11 11 11 12 12 13 15 17 18 19 21 20 16 16 18 22 23 22 20 17 14 12 12 13 16 20 22 23 24 23 22 21 20 20 20 19 18 17 16 15 14 13 12 11 10 9 8
19 20 20 21 22 23 24 23 20 18 17 16 16 16 16 16 17 17 18 19 18 17 17 16 16 16 17 17 15 14 14 15 16 15 14 14 13 12 11 11 11 11 12 13 15 17 18 18 21 20 17 17 18 22 25 24 22 18 16 14 13 13 14 17 21 23 24 24 23 21 20 20 20 20 19 18 17 16 15 14 12 11 11 10 9
22 23 23 23 23 23 23 22 19 17 17 16 16 16 15 16 16 17 18 18 17 17 16 16 16 16 16 16 15 14 14 15 16 15 14 14 14 13 12 12 12 13 14 14 15 17 18 17 20 21 18 18 19 23 26 25 23 20 17 15 14 13 14 16 19 22 24 25 24 23 21 20 19 19 19 18 18 17 16 15 14 13 12 11 10
23 24 25 25 25 24 23 21 18 17 16 16 16 15 15 16 16 17 17 17 16 16 16 16 16 16 15 15 15 14 13 14 15 15 15 15 14 14 13 14 15 16 16 16 16 17 18 17 19 22 22 19 19 23 27 27 24 22 19 17 15 14 14 15 18 21 23 25 25 24 23 21 20 19 19 18 17 17 17 16 16 15 14 12 11
23 25 26 26 26 25 24 22 18 17 17 16 15 15 16 16 16 17 17 17 16 15 16 16 15 15 15 15 14 13 12 13 14 14 15 15 15 14 13 14 15 17 17 17 17 17 19 19 18 21 22 19 19 23 27 28 26 23 21 18 16 15 15 15 17 19 22 24 25 25 24 23 22 21 20 18 17 16 16 16 17 17 16 15 13
23 23 25 25 26 26 25 22 18 17 16 16 15 16 16 17 17 17 17 16 15 15 15 15 14 14 15 15 14 13 13 13 13 13 14 15 15 15 14 14 16 17 18 17 18 18 19 21 20 19 20 19 19 24 28 29 27 25 22 19 17 16 15 15 16 18 21 23 24 25 24 24 23 23 22 20 18 17 16 16 16 16 17 17 15
22 22 23 24 24 25 24 21 19 17 16 16 16 17 17 17 17 17 16 15 14 15 15 15 14 14 14 14 14 13 13 13 13 13 14 14 14 14 14 15 17 18 18 18 18 19 19 21 22 20 19 19 21 24 29 30 28 26 24 21 19 18 16 16 17 18 19 21 22 24 24 24 24 23 23 22 20 19 18 17 16 16 16 17 17
21 20 22 23 23 23 22 20 19 18 17 17 17 18 18 18 17 17 16 15 15 15 15 15 15 15 14 14 14 13 13 13 13 14 14 15 14 14 14 15 18 19 19 19 19 19 20 21 22 23 20 19 21 24 29 31 30 28 26 23 21 19 18 17 17 18 19 20 21 23 23 23 23 23 23 23 22 22 21 20 18 17 16 16 18
20 19 20 22 23 22 21 20 18 18 18 18 19 19 19 18 17 16 16 16 16 16 16 16 16 16 15 15 15 14 15 15 15 16 16 16 15 14 14 15 17 19 21 21 21 20 20 21 22 24 22 20 21 24 29 32 31 29 28 25 23 21 19 18 18 18 18 19 21 22 22 22 22 23 23 23 23 23 23 22 21 19 18 17 18
20 19 19 20 21 21 20 18 18 18 18 19 19 19 18 18 17 17 17 17 17 17 16 17 17 17 16 16 16 17 17 18 18 18 18 19 17 15 15 16 16 17 20 21 21 21 21 22 23 25 25 23 22 23 27 32 32 31 29 27 25 23 21 20 19 18 18 19 20 21 21 21 21 22 22 23 23 24 24 24 23 22 21 20 19
20 19 18 19 19 19 18 17 17 17 18 18 19 19 19 18 18 18 18 18 18 18 17 17 18 18 18 18 19 19 20 20 21 21 21 20 17 16 16 16 15 15 17 19 20 21 21 22 23 26 26 26 26 25 25 30 32 31 31 29 27 24 23 22 20 19 19 19 20 21 21 22 22 22 22 22 23 23 24 24 24 23 23 22 21
20 20 19 19 18 18 17 16 17 17 18 18 18 19 19 19 19 19 18 18 19 19 19 18 19 19 20 21 21 22 22 23 23 22 22 19 16 16 17 16 15 14 15 17 19 21 21 22 23 25 26 26 28 27 25 27 31 32 32 30 28 26 25 24 22 21 20 20 20 21 22 22 22 22 22 22 22 23 23 24 24 24 23 23 22
21 21 21 20 18 18 17 17 17 17 18 18 19 19 20 20 20 20 19 19 19 20 19 19 20 20 21 22 22 23 24 25 24 23 22 19 16 17 18 17 16 15 15 17 19 20 21 21 22 24 25 26 27 28 26 26 29 31 33 32 30 29 27 26 24 23 21 21 21 21 22 22 22 22 22 22 22 23 23 24 24 24 23 23 23
22 22 22 21 20 19 19 18 17 18 18 19 20 20 20 21 21 20 20 20 20 20 20 20 20 21 22 23 23 24 25 26 26 25 24 21 19 19 19 18 18 17 16 17 19 20 21 22 22 23 25 26 26 26 27 27 27 30 32 34 32 31 30 28 27 25 24 23 22 21 20 20 21 21 22 22 22 23 23 24 24 24 24 24 24
23 23 23 22 21 20 20 19 19 19 19 20 21 21 21 21 21 21 21 20 20 20 20 20 21 22 23 24 24 25 25 27 26 26 26 24 22 21 21 20 19 19 19 18 19 19 21 22 23 23 25 26 27 26 26 26 27 28 30 33 34 33 32 31 29 28 26 25 23 22 21 20 20 21 22 22 22 22 23 23 23 24 24 24 24
23 23 23 22 22 21 20 20 20 20 20 21 22 22 22 22 22 22 21 21 21 21 21 21 22 22 23 24 24 25 26 27 26 26 27 26 24 23 23 21 20 21 21 19 18 18 21 22 23 24 24 26 28 28 27 26 27 28 29 31 34 35 34 34 32 30 29 28 26 24 23 22 21 21 22 22 23 22 22 22 23 23 23 23 24
24 23 23 22 23 23 22 22 22 22 22 22 23 23 23 23 23 22 22 22 22 22 22 22 22 22 23 24 24 25 26 27 26 26 27 26 25 24 23 22 21 21 20 19 18 18 20 21 22 23 24 25 27 29 29 28 28 29 29 30 32 35 36 36 35 33 32 30 29 27 25 24 23 23 22 23 23 23 22 22 21 22 22 22 23
25 23 23 22 22 23 24 24 24 24 24 24 25 25 25 24 24 24 24 24 24 23 23 23 23 23 23 24 25 25 26 27 27 27 27 27 26 25 24 23 23 21 20 20 19 18 19 20 20 21 22 24 26 29 30 31 31 31 31 30 31 33 36 38 37 36 35 33 31 30 28 26 25 24 24 24 24 24 23 22 21 21 21 21 22
24 23 23 23 22 23 24 25 25 25 26 26 26 26 26 26 26 26 25 25 25 25 24 24 24 24 24 24 25 26 27 28 28 27 27 27 27 27 26 23 23 22 21 21 21 20 19 20 20 19 20 23 26 28 29 31 33 33 34 33 32 33 35 38 39 38 37 36 34 32 31 29 27 27 26 25 25 24 23 23 22 21 21 21 21
24 24 25 24 23 22 22 24 25 26 26 27 27 27 27 27 27 27 27 26 26 26 25 25 24 25 25 25 26 26 27 28 28 28 28 28 27 28 27 25 24 24 23 23 23 22 21 20 20 19 18 20 24 26 28 30 33 35 36 37 36 36 35 37 39 41 40 39 37 35 33 32 30 29 29 27 27 26 25 24 23 22 22 21 21
25 26 26 26 25 24 23 23 24 25 25 25 26 27 27 27 27 27 27 27 27 26 26 25 25 25 26 26 26 27 28 28 29 28 28 28 28 27 27 26 26 25 25 25 24 23 22 22 23 21 19 19 21 25 27 29 33 36 38 40 40 40 39 38 39 41 43 42 40 38 36 35 33 32 32 31 29 28 28 27 26 25 24 22 22
26 28 28 27 26 26 25 24 24 23 23 23 24 25 25 26 27 27 27 27 27 26 26 25 25 26 26 27 27 27 28 29 29 28 28 28 28 27 27 26 26 25 26 27 26 24 23 23 24 23 22 21 21 25 26 25 28 33 35 39 43 44 43 41 41 41 43 44 42 40 39 38 37 36 35 33 32 31 30 29 29 28 27 25 25
27 29 29 29 28 27 26 26 25 24 23 23 23 24 24 25 25 26 26 26 26 26 26 25 26 26 27 27 27 28 28 29 29 28 28 28 27 27 27 26 26 25 25 27 28 27 25 25 25 24 24 23 21 23 25 21 20 23 27 30 36 43 44 43 43 42 42 44 44 42 42 40 39 38 37 36 35 34 33 32 31 30 30 29 28
27 30 30 30 29 28 27 27 25 23 22 22 23 23 23 23 24 24 25 25 25 25 25 25 26 26 27 28 28 28 28 28 28 28 27 27 27 27 27 26 26 25 25 26 28 29 28 26 25 24 24 24 22 21 23 22 18 17 19 21 25 34 41 44 45 44 42 43 44 43 43 42 41 40 38 37 37 36 35 34 33 33 32 31 31
26 30 31 31 30 28 27 27 25 23 21 21 21 21 21 22 23 23 23 24 24 24 25 25 26 26 26 27 28 27 28 28 28 27 27 27 27 27 27 26 26 25 25 26 27 28 29 28 28 27 26 25 24 22 22 22 20 19 18 18 19 23 30 37 43 44 42 42 43 43 43 42 41 40 40 40 39 38 37 36 35 35 34 34 33
27 30 31 31 30 28 28 27 25 22 21 21 21 20 20 20 21 21 22 23 24 24 25 25 25 25 26 26 27 27 27 27 27 26 26 26 26 26 26 26 26 25 24 25 26 27 28 29 30 31 30 28 26 26 24 22 22 21 19 18 18 19 22 28 36 42 43 42 42 43 43 42 42 41 41 41 41 41 40 39 38 37 36 36 35
28 31 31 31 30 28 28 27 25 24 22 21 21 21 20 19 19 20 21 22 23 24 25 25 25 25 25 26 26 27 27 27 26 25 25 24 25 25 25 25 25 25 24 24 25 26 26 28 30 31 31 31 29 29 27 25 23 22 21 20 19 19 20 23 28 35 40 42 42 41 41 42 43 43 43 43 42 42 42 41 40 39 38 38 37
30 32 31 30 29 28 28 27 26 24 23 22 22 21 20 19 19 19 20 22 23 23 24 25 25 25 25 26 26 26 26 26 25 25 24 23 24 24 25 25 25 25 24 24 24 25 25 26 28 29 31 31 31 30 29 27 26 24 22 21 20 20 20 21 23 28 33 35 38 40 40 42 43 44 44 43 43 43 43 42 42 41 40 40 39
30 33 31 29 28 27 27 27 25 24 23 23 22 21 19 19 19 20 21 21 22 22 23 23 24 24 25 26 26 26 26 26 25 24 23 23 23 23 24 24 24 24 24 24 23 24 25 25 26 27 29 30 30 30 30 30 29 27 26 25 24 23 22 21 22 25 29 31 33 35 36 40 43 44 44 44 43 42 42 42 42 42 42 42 41
30 31 30 28 27 27 26 25 24 23 22 22 21 20 19 19 19 20 21 21 21 21 21 22 23 23 24 25 26 26 26 26 25 23 22 22 22 22 23 24 24 24 23 23 23 23 23 24 25 25 26 27 28 29 30 31 31 30 29 28 28 27 26 25 24 24 26 29 32 32 33 35 38 41 42 42 43 42 42 41 41 41 41 41 41
28 28 27 27 27 26 25 24 22 21 21 21 20 19 18 18 19 20 21 21 21 21 21 22 22 22 23 24 25 26 25 25 24 23 22 21 20 21 21 22 23 23 23 22 22 22 22 23 25 25 25 25 26 26 27 29 30 30 30 30 30 30 29 29 28 27 26 27 29 31 33 34 35 38 38 39 41 41 41 41 41 42 42 41 41
25 25 26 27 28 27 26 24 22 21 20 20 19 18 17 18 19 20 21 21 21 21 21 21 22 22 22 23 24 25 25 24 23 22 21 20 19 19 20 21 21 22 22 21 21 20 20 21 23 24 24 24 24 25 25 26 27 28 29 29 30 30 31 31 30 30 30 29 29 29 31 32 34 36 37 39 40 40 40 40 40 41 42 42 42
Wind_Direction
265 266 267 266 267 269 272 276 278 281 285 288 291 293 294 295 297 299 301 303 304 306 308 310 313 315 317 316 314 310 305 300 294 291 287 281 264 229 211 206 214 232 247 270 292 295 286 286 284 280 266 246 238 247 267 262 209 190 191 193 191 188 187 188 190 186 183 178 168 159 154 143 131 124 120 117 116 115 110 106 105 104 101 98 94
264 265 267 267 268 270 273 275 277 280 283 287 290 292 293 295 298 300 301 303 305 307 310 312 313 314 314 313 309 305 300 295 287 281 277 274 263 242 223 213 214 225 236 274 297 294 283 279 278 274 259 246 240 243 262 263 217 193 189 192 192 191 190 191 192 188 188 184 173 163 156 146 135 128 125 123 123 121 115 111 109 106 104 101 98
262 264 265 266 269 271 273 275 277 279 283 286 289 291 293 296 299 300 301 303 306 308 310 312 312 312 311 309 305 299 295 289 281 272 266 265 259 247 233 222 220 226 236 263 290 293 280 273 273 269 256 244 241 243 256 258 221 199 189 191 194 193 193 194 194 193 192 187 178 167 159 150 140 132 130 129 129 126 120 116 113 109 106 104 101
261 263 263 264 268 272 274 276 278 280 283 286 288 290 293 297 298 299 301 304 306 308 309 309 309 308 306 305 301 296 293 287 275 264 256 258 258 251 240 229 227 235 248 259 282 292 278 271 272 264 252 242 238 240 252 255 224 203 192 192 195 195 195 196 197 197 194 189 182 172 164 156 145 138 137 135 133 130 124 121 117 113 109 106 103
261 263 261 263 267 272 275 277 279 281 284 286 287 290 293 295 296 298 302 304 305 306 306 305 305 303 302 301 298 295 293 288 272 257 247 246 252 252 246 235 231 234 245 257 271 286 280 273 272 262 247 237 233 237 244 249 225 206 196 193 196 197 197 199 201 200 195 189 184 177 170 162 151 144 143 141 138 135 128 125 121 116 112 109 106
261 263 261 264 269 273 275 278 280 282 284 286 287 290 293 293 295 299 302 302 303 303 302 301 300 298 297 298 296 295 294 292 275 253 241 236 240 245 245 240 234 233 238 248 256 273 279 275 273 260 241 233 229 233 238 244 225 210 201 194 196 198 199 202 204 203 196 190 184 179 172 162 154 148 148 147 144 139 132 128 123 119 115 111 108
265 266 265 268 272 275 277 279 281 283 285 286 288 290 291 292 295 298 300 301 301 300 298 296 295 295 295 295 293 294 296 296 282 255 240 234 233 236 237 237 235 234 235 242 247 258 273 274 273 260 238 228 225 230 235 239 229 214 206 199 197 198 201 204 206 206 199 194 185 177 170 160 155 151 151 151 148 143 136 130 126 122 118 113 110
269 271 271 272 273 276 279 281 283 284 285 286 287 288 289 292 295 298 299 299 298 295 292 290 291 292 294 292 289 289 295 297 287 262 244 234 231 232 232 232 231 232 234 238 241 245 261 270 271 260 237 226 223 228 231 235 230 217 211 203 198 198 202 206 208 208 203 197 187 177 168 159 157 155 154 154 152 146 139 134 129 126 121 116 111
272 275 275 275 275 278 280 282 284 284 284 285 286 286 288 293 296 298 298 296 292 289 287 287 288 290 290 287 282 282 287 288 283 271 254 238 230 230 231 231 229 230 232 234 237 238 250 263 266 258 239 226 222 225 228 230 230 217 215 208 201 199 202 207 209 209 205 200 193 180 168 161 160 158 158 157 154 149 144 137 132 128 124 119 113
274 276 277 277 279 280 280 281 282 283 284 283 284 285 289 294 297 297 295 290 287 285 284 285 286 288 285 278 274 275 278 278 275 272 267 252 237 232 232 231 230 229 229 230 231 233 243 258 263 255 239 228 222 224 226 228 229 217 215 212 206 202 203 207 209 210 206 202 197 185 172 166 161 162 162 160 157 152 147 141 135 132 128 123 117
274 275 276 278 279 280 279 280 280 281 283 283 284 286 291 295 295 293 290 286 284 283 283 283 284 284 277 267 267 271 271 271 270 270 273 269 253 242 237 234 232 228 227 229 229 228 237 253 259 249 236 229 223 222 224 225 225 217 214 213 209 207 207 208 209 209 207 203 200 189 179 170 163 164 165 163 160 154 150 146 141 137 133 128 122
273 274 275 277 279 280 280 281 281 281 283 284 286 288 293 294 292 291 288 285 283 282 282 280 279 275 265 257 261 265 267 267 266 270 278 281 268 251 242 237 234 231 227 228 229 226 231 246 254 248 235 229 223 220 222 223 223 220 216 214 211 210 211 212 210 209 208 205 202 195 185 174 168 166 167 167 163 158 154 151 147 143 138 134 128
274 274 276 279 281 282 281 283 283 282 281 283 287 289 291 292 290 289 286 284 282 280 279 275 271 264 254 251 258 262 265 267 267 272 278 282 277 261 246 236 232 230 227 227 230 229 229 239 250 249 237 227 222 219 221 222 222 223 218 214 213 213 214 215 214 211 208 206 204 200 190 179 173 170 168 169 167 162 158 156 154 149 145 141 134
273 275 278 281 282 281 281 282 282 281 280 282 287 286 287 289 288 286 284 281 279 277 273 268 261 253 248 250 257 263 267 270 272 275 279 281 280 268 246 233 229 227 226 226 230 232 231 236 245 248 238 227 221 219 222 221 219 222 216 211 212 214 216 216 216 215 211 207 205 203 196 186 178 174 171 172 172 168 163 162 160 156 151 147 142
272 275 278 280 281 279 279 279 278 279 279 283 286 285 286 287 285 282 278 276 275 271 266 259 253 248 248 252 259 266 269 273 275 277 282 283 281 271 246 230 227 227 227 227 229 232 233 236 243 246 238 229 223 218 220 220 217 220 217 209 211 214 216 217 216 217 215 210 208 205 199 192 184 180 177 175 176 174 170 167 166 163 157 152 148
273 276 277 277 278 277 275 275 275 276 279 284 285 284 285 284 282 278 275 275 271 263 257 253 250 249 250 254 261 267 270 272 273 276 281 282 279 272 249 232 228 229 230 229 230 234 235 237 241 244 238 231 225 220 218 218 216 218 218 213 216 216 217 218 217 218 218 213 210 209 203 197 191 186 182 180 180 179 177 175 173 171 164 157 152
278 278 277 275 275 274 273 272 272 275 280 283 281 280 280 279 277 274 275 271 262 255 253 253 252 252 253 255 258 263 268 270 272 276 280 278 274 265 249 239 234 232 233 231 231 235 237 237 239 240 237 232 227 222 216 215 216 216 218 217 220 220 217 218 218 219 220 217 213 211 208 202 198 193 188 186 185 184 184 183 182 179 172 164 158
282 280 276 272 271 272 272 271 272 276 280 279 278 275 272 273 272 271 275 269 260 255 254 254 252 252 253 255 257 262 267 269 273 277 279 274 266 256 248 245 241 239 238 234 230 232 235 236 239 238 235 233 228 224 216 212 215 217 217 218 221 222 219 218 218 219 220 221 218 215 212 208 204 199 195 193 192 191 188 188 189 188 181 174 168
285 281 275 270 268 268 270 271 273 276 276 274 273 270 268 268 268 270 272 268 264 259 255 253 253 254 257 258 261 266 269 270 272 275 275 269 260 252 249 248 248 246 243 239 231 228 232 234 240 239 233 233 229 225 218 211 213 216 216 217 220 220 217 216 217 219 220 221 221 219 217 214 210 206 202 201 200 199 196 193 193 193 191 187 182
283 282 277 270 267 266 267 269 272 274 271 269 266 264 263 262 263 264 262 264 267 264 259 257 257 259 262 264 265 269 271 269 269 269 268 265 257 251 250 251 251 251 246 241 233 227 228 231 238 240 233 230 229 226 221 212 211 213 214 215 220 221 216 215 216 219 221 222 222 222 222 220 217 213 209 208 208 208 206 203 201 199 198 198 196
279 283 281 275 269 266 266 268 270 269 267 265 261 259 257 255 257 259 258 262 265 265 265 265 264 263 263 266 268 271 272 268 265 265 263 261 256 250 249 252 253 255 253 246 237 227 225 229 234 237 232 227 226 225 222 215 210 210 211 213 218 223 218 214 215 219 222 223 222 222 222 223 222 219 216 214 214 215 215 214 212 210 208 207 208
280 282 283 278 272 268 267 267 267 265 264 261 259 256 251 248 250 254 257 261 263 264 267 267 266 265 265 270 272 271 270 265 265 267 266 262 258 253 249 252 256 259 259 253 242 227 223 227 231 230 225 224 224 224 223 218 212 209 210 211 215 222 221 216 215 218 222 223 223 222 222 223 224 224 223 220 220 221 221 222 222 221 219 217 217
281 280 279 277 273 269 267 266 264 261 260 259 256 252 247 244 243 247 252 256 260 262 263 263 263 266 270 273 275 273 267 263 266 271 270 267 263 259 253 252 256 258 258 255 246 231 223 226 231 230 223 219 222 222 222 221 215 211 210 209 212 219 223 219 216 217 221 223 223 223 222 222 224 226 227 225 225 227 227 229 229 229 228 226 225
281 278 276 274 271 269 268 266 262 256 256 255 251 246 242 240 239 241 246 249 253 257 259 261 263 266 270 271 275 277 271 268 269 271 272 270 267 262 257 252 252 253 254 253 247 235 226 226 232 233 225 217 219 219 220 221 217 214 212 210 212 218 223 223 220 218 219 222 224 224 223 222 224 226 228 228 228 230 231 232 233 234 234 233 232
284 280 275 270 267 266 266 266 262 253 251 249 244 240 238 237 236 238 243 246 249 254 258 261 263 265 267 270 274 277 275 273 272 272 271 270 267 264 258 251 248 249 250 251 248 238 228 228 230 230 228 221 217 217 217 220 219 217 215 212 212 216 222 225 225 222 220 221 223 225 225 224 225 226 228 229 230 231 232 232 233 234 235 236 235
286 281 273 267 263 263 263 263 258 248 243 241 237 236 235 234 234 237 242 246 248 251 255 259 262 263 266 271 274 275 275 275 273 273 271 269 267 264 258 251 247 247 248 248 247 241 230 228 229 226 226 224 218 215 215 218 219 219 218 215 213 215 220 225 227 225 222 221 223 225 226 227 227 229 230 230 231 232 232 232 232 232 233 234 235
283 278 271 263 258 258 259 257 251 241 235 234 233 232 232 232 232 235 240 243 245 249 253 257 260 263 266 269 272 273 271 271 271 271 271 269 268 265 260 253 249 247 248 247 246 243 233 227 229 224 222 224 220 214 214 217 219 220 221 219 216 216 219 224 228 227 224 222 223 225 226 228 229 231 233 233 234 234 234 234 233 232 231 232 232
278 274 271 264 258 256 255 252 244 236 231 230 231 231 231 231 232 234 238 243 245 248 252 256 260 263 264 265 267 267 267 267 268 269 269 269 267 265 261 256 252 248 247 247 246 245 237 229 229 226 221 220 220 215 212 215 218 221 222 222 220 218 219 223 226 227 226 224 224 225 226 228 229 232 234 235 236 236 236 236 235 232 230 230 230
273 271 271 265 258 255 252 247 240 234 229 228 229 230 231 232 233 235 238 242 246 248 251 255 259 261 262 262 262 263 264 264 264 265 266 266 266 266 265 261 257 253 251 251 250 248 242 233 229 228 223 219 218 215 213 213 217 221 223 224 223 220 220 223 225 227 227 226 225 225 225 225 227 230 233 235 236 237 237 238 237 235 232 229 229
270 268 268 264 258 254 250 244 238 233 230 228 229 230 231 232 234 236 239 242 246 248 250 253 256 258 259 260 260 261 262 263 263 263 262 262 264 265 264 261 260 258 256 255 252 249 245 238 231 230 228 223 218 214 214 215 216 221 225 226 226 224 223 223 225 226 227 226 225 225 225 224 224 226 230 233 236 237 238 238 238 238 236 233 231
266 265 264 263 260 256 251 245 239 234 232 230 230 230 231 233 236 239 241 243 246 249 250 251 253 255 255 256 258 260 262 263 262 262 263 263 264 264 261 260 260 256 253 252 249 246 244 240 234 233 233 230 222 214 212 216 217 221 225 227 227 227 227 226 226 226 227 227 226 226 226 224 223 224 227 231 235 238 239 239 240 240 239 238 236
264 264 263 261 258 255 252 248 242 238 235 233 232 231 232 235 239 241 243 244 247 249 251 251 252 254 254 254 256 258 261 262 262 262 264 266 264 263 264 265 263 256 249 248 247 246 244 241 237 235 236 235 227 217 211 214 217 220 225 227 227 228 229 229 228 228 227 228 228 228 229 228 226 226 228 231 234 237 239 240 241 241 241 241 240
260 261 262 260 257 254 251 249 244 240 236 234 233 234 235 238 242 245 247 248 249 251 252 252 253 254 255 254 254 256 258 261 262 263 264 266 266 267 269 268 266 262 257 252 249 248 247 245 242 239 239 237 234 225 215 213 216 219 223 226 226 227 229 230 230 230 230 229 229 230 232 232 231 230 231 232 234 236 239 241 242 242 242 241 240
257 257 258 258 257 255 252 249 246 241 237 235 235 236 239 242 245 248 251 252 254 254 255 254 253 253 253 253 254 255 257 259 262 263 264 265 265 267 268 266 265 263 259 255 252 250 250 249 247 244 242 240 238 233 224 216 216 218 222 226 227 227 228 229 230 231 232 231 230 230 231 233 233 233 233 233 234 236 238 240 241 242 242 241 240
257 255 254 254 254 255 253 250 247 242 238 237 237 239 241 244 247 250 253 255 256 256 257 257 255 254 254 255 255 255 257 259 261 263 264 264 262 261 263 264 265 263 259 257 254 253 253 252 251 249 247 242 239 238 232 224 219 218 220 225 228 230 230 230 230 230 231 232 231 230 229 230 232 233 233 234 234 235 236 238 240 241 241 240 239
257 256 254 252 250 251 252 250 247 244 242 241 242 244 245 247 249 251 254 256 257 257 257 258 257 256 256 256 256 257 258 259 260 262 263 263 263 262 262 262 262 262 261 260 257 253 252 252 253 252 250 246 242 240 238 232 226 221 219 221 226 229 231 231 231 231 231 232 233 232 230 229 230 232 233 233 233 233 234 235 238 240 240 240 238
260 261 260 255 249 246 246 247 247 245 244 244 245 247 249 250 252 253 255 256 258 258 258 258 258 258 257 257 257 258 259 260 260 260 261 263 264 264 263 262 261 259 259 260 257 251 249 251 253 253 251 248 244 242 240 238 233 228 223 221 222 225 228 231 232 232 232 232 233 234 232 230 230 231 232 232 233 234 234 234 236 238 240 240 239
264 265 264 260 253 246 242 243 245 246 245 246 247 249 251 252 254 256 257 257 257 258 258 258 258 258 258 258 258 257 258 259 260 260 261 263 264 265 264 262 261 259 258 258 256 252 247 247 250 252 252 248 244 242 241 240 238 235 231 227 224 224 225 228 230 232 232 233 233 234 234 233 232 232 233 233 233 235 236 236 235 236 238 240 240
264 264 263 261 259 253 246 243 243 245 246 247 248 250 252 254 256 257 258 258 257 257 257 257 257 257 258 259 258 258 258 259 260 261 263 264 264 264 264 261 259 258 257 255 254 252 250 249 249 251 252 251 246 241 240 241 238 236 234 232 230 229 226 225 227 230 231 232 232 233 234 235 234 234 235 234 234 235 236 237 236 236 236 237 239
263 262 263 263 263 261 257 251 249 248 248 249 250 251 253 254 255 256 257 258 258 258 258 257 256 256 257 259 259 259 260 260 261 262 263 264 264 264 264 262 258 255 254 253 252 250 250 250 251 251 253 255 249 240 237 238 237 234 234 234 233 233 231 227 225 227 230 231 231 232 233 235 235 235 235 236 235 234 236 237 237 237 236 236 237
264 264 264 264 264 265 264 262 260 258 256 255 254 253 253 254 255 255 256 256 257 258 258 258 257 257 258 259 259 260 260 261 262 263 263 264 264 264 263 261 259 256 253 252 251 249 248 248 249 250 252 255 251 242 239 238 236 231 230 233 234 234 235 231 225 225 228 230 231 231 232 233 235 236 236 237 237 237 237 238 239 240 239 238 237
264 265 266 266 266 266 268 268 267 266 265 263 261 258 257 257 257 256 256 255 256 256 257 257 257 257 258 259 260 260 261 262 262 263 264 264 264 264 263 262 260 257 255 254 252 249 248 247 248 248 250 254 253 250 246 242 236 228 226 232 234 234 236 235 230 225 225 228 230 232 232 233 234 236 237 238 239 240 239 240 241 242 243 243 242
266 266 266 267 267 268 269 270 270 269 268 268 266 265 263 262 260 259 257 256 255 256 257 258 257 257 258 259 260 261 261 262 262 263 263 264 264 264 264 263 261 258 256 256 255 251 248 247 248 249 250 252 254 255 252 247 240 233 232 235 237 235 233 233 231 224 222 225 228 231 233 235 236 237 239 240 241 242 242 242 242 244 245 246 246
271 270 269 269 269 269 270 271 272 271 270 269 268 267 265 263 261 259 258 257 256 257 258 258 258 258 258 259 261 262 262 263 263 264 264 265 265 265 264 263 262 259 256 256 257 254 250 247 248 250 251 252 252 254 255 252 247 239 235 233 238 241 235 232 229 223 220 222 225 229 233 236 238 239 240 242 243 244 245 245 244 245 246 247 249
277 274 272 273 272 272 273 274 274 273 271 270 268 265 263 261 259 259 259 259 259 259 259 260 259 258 257 258 260 261 262 263 263 264 265 265 266 265 264 263 262 261 257 256 257 257 253 249 249 251 252 252 252 252 254 256 253 246 240 235 234 236 234 236 232 225 222 222 223 226 230 234 237 240 241 242 244 246 247 247 247 247 247 248 250
282 277 275 276 278 279 279 278 277 276 273 271 268 265 263 261 260 261 262 262 262 262 262 262 261 260 259 258 259 260 261 262 262 262 263 263 264 264 264 263 262 261 259 256 255 256 254 252 250 251 252 252 252 253 253 255 255 250 246 242 237 229 227 233 235 231 229 228 227 226 229 233 235 237 240 241 243 245 247 249 250 250 250 250 251
281 279 278 279 280 281 281 279 278 276 274 272 270 268 267 266 265 264 264 264 265 264 265 265 264 263 263 262 261 261 261 261 261 261 262 261 261 261 262 262 261 261 259 257 255 255 254 253 251 251 252 253 252 253 253 253 254 253 251 248 243 237 233 230 230 233 233 232 232 231 231 233 235 236 238 240 242 244 247 249 250 252 253 253 253
277 277 279 279 279 279 278 277 276 275 273 272 271 271 270 269 267 266 265 266 266 266 266 266 266 266 266 265 265 264 263 262 261 261 261 261 260 260 260 261 261 260 259 258 256 255 254 253 253 251 252 253 252 252 253 253 253 253 253 252 249 247 246 240 233 234 234 232 232 233 234 237 237 238 238 239 241 244 246 248 249 251 253 255 256
272 274 277 276 275 274 273 273 274 273 272 271 271 272 270 269 268 267 267 267 267 267 266 266 267 267 267 267 267 266 265 263 262 261 261 261 260 260 260 260 261 261 261 260 258 256 255 254 254 253 252 253 253 251 251 251 252 252 252 252 252 251 252 250 247 244 242 238 235 232 234 239 241 241 240 240 242 243 245 246 247 248 250 252 254
267 270 272 271 270 269 269 269 270 271 271 272 272 272 271 270 269 268 268 268 267 267 267 266 266 268 268 268 268 267 265 264 263 263 263 262 261 260 259 260 261 262 262 262 260 258 256 255 255 255 254 254 253 253 251 250 250 251 251 251 252 252 252 252 252 251 249 247 244 239 237 239 242 242 240 240 242 243 245 246 247 248 249 250 251
265 266 266 265 267 268 267 267 267 268 269 270 271 271 270 270 269 269 269 268 267 267 267 266 266 266 267 268 268 268 266 264 262 262 263 263 263 262 261 261 261 262 263 262 261 259 257 255 256 257 256 255 254 253 252 252 251 251 251 251 252 253 253 253 252 251 250 249 249 248 246 243 243 243 241 240 242 242 243 245 246 248 249 250 251
Height
5860 5860 5860 5860 5861 5861 5861 5861 5861 5861 5861 5861 5861 5861 5861 5861 5861 5861 5860 5860 5860 5859 5859 5859 5858 5858 5857 5857 5856 5856 5855 5855 5855 5854 5854 5854 5855 5856 5856 5856 5856 5857 5858 5858 5858 5858 5858 5858 5857 5858 5859 5860 5861 5861 5861 5862 5862 5863 5863 5865 5866 5867 5868 5869 5869 5871 5871 5871 5872 5873 5873 5874 5875 5876 5876 5877 5877 5877 5877 5877 5877 5877 5877 5877 5877
5859 5859 5859 5859 5859 5859 5859 5859 5859 5859 5859 5860 5860 5859 5859 5859 5859 5859 5859 5858 5858 5858 5857 5857 5857 5856 5856 5855 5855 5855 5854 5854 5853 5853 5853 5853 5854 5855 5855 5855 5856 5857 5857 5857 5857 5857 5857 5857 5857 5857 5858 5859 5860 5860 5861 5861 5862 5862 5863 5864 5866 5867 5868 5868 5869 5870 5871 5871 5872 5873 5874 5875 5875 5876 5877 5877 5877 5877 5877 5877 5878 5878 5878 5877 5877
5857 5857 5857 5857 5857 5857 5857 5857 5857 5858 5858 5858 5858 5858 5858 5858 5858 5857 5857 5857 5856 5856 5856 5856 5855 5855 5854 5854 5854 5853 5853 5853 5852 5852 5852 5853 5853 5854 5854 5854 5855 5855 5856 5856 5857 5857 5857 5857 5856 5857 5857 5858 5859 5860 5860 5861 5861 5862 5862 5864 5865 5866 5867 5868 5869 5870 5871 5871 5872 5873 5874 5875 5876 5876 5877 5877 5877 5877 5877 5878 5878 5878 5878 5878 5878
5855 5855 5855 5855 5855 5855 5856 5856 5856 5856 5857 5857 5856 5856 5856 5856 5856 5855 5855 5855 5855 5855 5854 5854 5854 5853 5853 5852 5852 5852 5851 5851 5851 5851 5851 5852 5852 5853 5853 5854 5854 5854 5855 5856 5856 5856 5856 5856 5856 5856 5857 5858 5859 5859 5860 5860 5861 5861 5862 5863 5864 5866 5867 5868 5869 5869 5870 5871 5872 5873 5874 5875 5876 5877 5877 5878 5878 5878 5878 5878 5878 5878 5878 5878 5878
5853 5853 5853 5853 5853 5854 5854 5854 5854 5855 5855 5855 5855 5855 5854 5854 5854 5854 5854 5854 5853 5853 5853 5853 5852 5852 5851 5851 5850 5850 5850 5850 5850 5850 5850 5850 5851 5852 5852 5853 5853 5854 5854 5855 5855 5855 5855 5855 5855 5855 5856 5857 5858 5859 5859 5860 5860 5861 5862 5863 5864 5865 5867 5867 5868 5869 5870 5871 5872 5873 5874 5875 5876 5876 5877 5878 5878 5878 5878 5878 5878 5878 5878 5878 5878
5851 5851 5851 5851 5851 5852 5852 5852 5852 5853 5853 5853 5853 5853 5852 5852 5852 5852 5852 5852 5852 5852 5851 5851 5851 5850 5850 5849 5849 5849 5848 5848 5849 5849 5849 5849 5850 5851 5851 5852 5852 5853 5854 5854 5855 5855 5855 5855 5854 5855 5855 5856 5857 5858 5859 5859 5859 5860 5861 5862 5863 5865 5866 5867 5868 5869 5870 5871 5872 5873 5874 5875 5876 5876 5877 5878 5878 5878 5878 5879 5879 5879 5879 5879 5878
5849 5849 5849 5849 5849 5849 5850 5850 5850 5850 5851 5851 5851 5851 5850 5850 5850 5850 5850 5850 5850 5850 5850 5849 5849 5848 5848 5848 5847 5847 5847 5847 5847 5847 5848 5848 5849 5850 5850 5851 5851 5852 5853 5853 5854 5854 5854 5854 5854 5854 5855 5855 5856 5857 5858 5858 5859 5860 5861 5861 5862 5864 5865 5866 5867 5869 5870 5870 5871 5873 5873 5874 5876 5876 5877 5877 5878 5879 5879 5879 5879 5879 5879 5879 5879
5846 5847 5847 5847 5847 5847 5847 5848 5848 5848 5849 5849 5849 5848 5848 5849 5849 5849 5849 5849 5849 5848 5848 5847 5847 5847 5846 5846 5846 5845 5845 5845 5846 5846 5846 5847 5848 5849 5849 5849 5850 5851 5851 5852 5853 5853 5853 5853 5853 5853 5854 5854 5855 5856 5857 5857 5858 5859 5860 5861 5862 5863 5864 5865 5867 5868 5869 5870 5871 5872 5873 5874 5875 5876 5877 5877 5878 5878 5879 5879 5879 5879 5880 5880 5879
5844 5844 5845 5845 5845 5845 5845 5846 5846 5846 5846 5846 5846 5846 5846 5847 5847 5847 5847 5847 5846 5846 5846 5845 5845 5845 5844 5844 5844 5844 5844 5844 5845 5845 5845 5846 5847 5847 5848 5848 5849 5849 5850 5851 5851 5852 5852 5852 5852 5852 5853 5853 5854 5855 5856 5856 5857 5858 5859 5860 5861 5862 5863 5865 5866 5867 5869 5870 5870 5871 5872 5873 5874 5876 5876 5877 5878 5878 5879 5879 5879 5880 5880 5880 5880
5842 5843 5842 5842 5843 5843 5843 5844 5844 5844 5844 5844 5844 5844 5844 5845 5845 5845 5844 5844 5844 5844 5844 5843 5843 5843 5842 5842 5842 5842 5842 5843 5843 5844 5844 5844 5845 5846 5846 5847 5847 5848 5848 5849 5850 5851 5851 5851 5851 5851 5852 5852 5853 5854 5855 5855 5856 5858 5859 5859 5860 5861 5862 5864 5865 5867 5868 5869 5870 5871 5872 5872 5874 5875 5876 5877 5877 5878 5879 5879 5879 5880 5880 5880 5880
5841 5841 5841 5840 5840 5841 5841 5842 5842 5842 5842 5841 5841 5842 5842 5842 5842 5842 5842 5842 5842 5841 5841 5841 5841 5841 5841 5841 5841 5841 5841 5841 5842 5842 5843 5843 5844 5844 5845 5846 5846 5846 5846 5847 5848 5849 5850 5850 5850 5850 5851 5851 5852 5853 5854 5854 5855 5857 5858 5859 5860 5861 5862 5863 5864 5866 5867 5869 5870 5871 5871 5872 5873 5874 5875 5876 5877 5878 5878 5879 5879 5879 5880 5880 5880
5839 5839 5839 5838 5838 5839 5839 5839 5839 5839 5839 5839 5839 5839 5840 5840 5840 5840 5840 5840 5839 5839 5839 5839 5839 5838 5839 5839 5839 5839 5839 5839 5840 5840 5841 5842 5842 5843 5843 5844 5844 5845 5845 5846 5846 5848 5848 5849 5849 5849 5849 5850 5851 5852 5853 5853 5854 5856 5857 5858 5859 5860 5861 5862 5863 5865 5866 5868 5869 5870 5871 5871 5872 5873 5875 5876 5877 5877 5878 5878 5878 5879 5880 5880 5880
5837 5836 5836 5836 5836 5836 5837 5837 5837 5837 5837 5837 5837 5838 5838 5838 5838 5838 5838 5837 5837 5837 5837 5837 5836 5836 5837 5837 5837 5837 5837 5838 5838 5838 5839 5840 5840 5841 5842 5842 5843 5843 5843 5844 5845 5846 5847 5847 5847 5848 5848 5849 5850 5851 5851 5852 5854 5855 5856 5857 5858 5859 5860 5861 5863 5864 5865 5867 5869 5870 5870 5871 5872 5873 5874 5875 5876 5877 5877 5877 5878 5878 5879 5879 5879
5834 5834 5834 5834 5834 5834 5834 5835 5835 5834 5835 5835 5835 5836 5836 5836 5836 5836 5835 5835 5835 5835 5834 5835 5835 5835 5835 5835 5835 5835 5836 5836 5836 5837 5837 5838 5838 5838 5840 5841 5841 5842 5842 5843 5843 5844 5845 5846 5846 5847 5847 5848 5848 5850 5850 5851 5853 5854 5855 5856 5857 5858 5859 5860 5862 5863 5864 5865 5867 5869 5870 5870 5871 5872 5873 5874 5875 5876 5876 5877 5877 5878 5878 5879 5879
5832 5832 5832 5832 5832 5832 5832 5833 5833 5832 5832 5833 5833 5833 5834 5834 5834 5833 5833 5833 5833 5832 5832 5833 5833 5833 5833 5834 5834 5834 5834 5835 5835 5835 5835 5836 5836 5836 5837 5838 5839 5840 5841 5841 5842 5842 5843 5844 5845 5845 5846 5846 5847 5848 5849 5851 5852 5852 5854 5855 5856 5857 5858 5859 5860 5861 5863 5864 5866 5867 5869 5870 5871 5871 5872 5874 5874 5875 5876 5876 5877 5877 5878 5878 5879
5830 5830 5830 5830 5830 5830 5831 5831 5831 5830 5830 5831 5831 5831 5832 5831 5831 5830 5830 5831 5830 5829 5830 5831 5831 5832 5832 5832 5833 5833 5833 5833 5834 5834 5834 5834 5834 5834 5835 5836 5838 5838 5839 5840 5841 5841 5842 5843 5844 5844 5845 5845 5846 5847 5848 5850 5851 5851 5852 5853 5854 5855 5856 5858 5859 5860 5862 5863 5865 5866 5868 5869 5870 5870 5871 5873 5873 5874 5875 5876 5876 5876 5877 5878 5878
5828 5828 5828 5828 5828 5828 5828 5828 5828 5829 5829 5829 5829 5829 5830 5829 5828 5828 5829 5828 5827 5828 5829 5829 5830 5830 5831 5831 5831 5831 5831 5832 5832 5832 5832 5832 5832 5832 5833 5834 5836 5837 5838 5838 5839 5840 5840 5841 5842 5843 5844 5844 5844 5845 5847 5848 5849 5850 5851 5852 5853 5854 5855 5856 5858 5859 5861 5862 5863 5865 5866 5868 5869 5870 5870 5871 5872 5873 5874 5875 5875 5876 5877 5877 5878
5825 5825 5826 5826 5826 5826 5826 5826 5826 5827 5827 5827 5827 5827 5828 5827 5827 5827 5827 5825 5825 5828 5828 5827 5828 5828 5828 5828 5829 5829 5830 5830 5830 5830 5830 5830 5831 5831 5831 5833 5834 5835 5836 5837 5838 5838 5839 5839 5840 5841 5842 5843 5843 5844 5845 5847 5848 5849 5850 5850 5852 5853 5854 5855 5856 5858 5859 5861 5862 5863 5865 5867 5868 5869 5870 5871 5871 5872 5873 5874 5875 5876 5876 5877 5877
5823 5823 5823 5823 5823 5824 5824 5823 5824 5825 5825 5825 5825 5825 5825 5825 5825 5825 5825 5824 5825 5827 5825 5825 5826 5826 5827 5827 5827 5828 5828 5828 5828 5829 5829 5829 5829 5829 5830 5831 5832 5833 5834 5835 5836 5837 5837 5838 5838 5838 5840 5841 5842 5842 5843 5845 5847 5848 5848 5849 5850 5851 5852 5853 5855 5856 5858 5859 5861 5862 5864 5866 5867 5868 5869 5870 5871 5871 5872 5873 5874 5875 5876 5876 5877
5821 5821 5821 5821 5821 5821 5821 5821 5822 5822 5823 5823 5823 5823 5823 5823 5823 5823 5823 5822 5823 5824 5823 5823 5824 5825 5825 5826 5826 5826 5826 5827 5827 5827 5827 5828 5828 5828 5829 5830 5830 5831 5832 5833 5834 5835 5835 5836 5836 5836 5838 5840 5840 5841 5841 5843 5845 5846 5847 5848 5849 5850 5851 5852 5853 5855 5856 5858 5860 5861 5863 5864 5866 5867 5868 5869 5870 5871 5872 5873 5873 5874 5875 5875 5876
5818 5818 5819 5819 5819 5819 5819 5819 5820 5820 5820 5821 5821 5821 5821 5821 5821 5821 5821 5820 5821 5822 5821 5821 5822 5823 5824 5824 5824 5824 5825 5825 5825 5825 5826 5826 5826 5827 5828 5828 5829 5829 5829 5830 5831 5832 5833 5834 5835 5835 5836 5837 5838 5839 5839 5841 5843 5844 5845 5846 5847 5848 5849 5850 5852 5853 5855 5856 5858 5860 5862 5863 5864 5866 5867 5868 5869 5870 5871 5872 5873 5873 5874 5875 5875
5816 5816 5816 5816 5816 5816 5816 5817 5817 5818 5818 5818 5819 5819 5819 5820 5820 5819 5819 5819 5820 5820 5820 5820 5821 5822 5822 5822 5822 5823 5823 5823 5823 5823 5824 5824 5824 5825 5826 5826 5827 5827 5827 5827 5829 5830 5831 5832 5833 5833 5834 5835 5836 5837 5837 5839 5841 5843 5844 5844 5845 5846 5847 5849 5850 5851 5853 5854 5856 5858 5860 5861 5863 5864 5866 5867 5868 5869 5870 5871 5872 5872 5873 5874 5874
5813 5813 5813 5813 5813 5813 5814 5814 5815 5815 5816 5816 5816 5817 5817 5818 5818 5818 5817 5818 5818 5818 5818 5819 5820 5821 5821 5820 5821 5821 5821 5821 5821 5821 5822 5822 5822 5823 5824 5825 5825 5825 5825 5825 5826 5827 5829 5830 5830 5830 5831 5832 5834 5835 5835 5837 5839 5841 5842 5843 5844 5845 5846 5847 5848 5850 5851 5852 5854 5856 5858 5860 5861 5862 5864 5865 5867 5868 5869 5870 5870 5871 5872 5873 5874
5811 5810 5810 5810 5810 5811 5811 5812 5813 5813 5813 5814 5814 5815 5815 5816 5816 5816 5816 5816 5817 5817 5817 5818 5819 5819 5819 5819 5819 5820 5820 5820 5819 5819 5820 5820 5820 5820 5821 5822 5822 5822 5822 5822 5823 5825 5826 5827 5828 5828 5828 5830 5831 5833 5833 5835 5837 5839 5840 5841 5842 5843 5844 5845 5846 5848 5849 5851 5852 5854 5856 5857 5859 5860 5862 5864 5865 5866 5867 5868 5869 5870 5871 5872 5873
5808 5808 5808 5808 5808 5808 5809 5809 5810 5811 5811 5812 5812 5813 5813 5814 5814 5814 5815 5815 5815 5816 5816 5817 5817 5818 5818 5818 5818 5818 5818 5818 5817 5817 5818 5817 5817 5818 5819 5819 5820 5819 5820 5820 5820 5822 5824 5825 5826 5826 5827 5828 5829 5830 5831 5832 5835 5837 5838 5840 5841 5842 5843 5844 5845 5846 5847 5849 5850 5852 5854 5855 5857 5858 5860 5862 5863 5864 5865 5866 5867 5868 5869 5870 5871
5806 5806 5805 5805 5805 5806 5806 5807 5808 5808 5809 5810 5810 5811 5811 5812 5812 5812 5813 5813 5814 5814 5814 5815 5815 5816 5816 5816 5816 5816 5816 5816 5815 5815 5815 5815 5815 5815 5816 5817 5817 5817 5817 5818 5818 5819 5821 5822 5823 5824 5825 5826 5827 5828 5829 5830 5832 5834 5836 5838 5839 5841 5842 5843 5844 5845 5846 5847 5848 5850 5852 5853 5855 5856 5858 5859 5861 5862 5863 5864 5865 5866 5867 5868 5869
5803 5803 5803 5802 5802 5803 5804 5804 5805 5806 5807 5807 5808 5808 5809 5810 5810 5811 5811 5811 5812 5812 5812 5813 5813 5814 5814 5814 5814 5814 5814 5814 5813 5813 5812 5812 5812 5813 5814 5814 5814 5814 5815 5815 5815 5816 5818 5820 5821 5822 5824 5824 5825 5826 5827 5828 5830 5832 5833 5835 5837 5839 5840 5841 5842 5843 5844 5845 5846 5848 5849 5851 5853 5854 5856 5857 5858 5859 5860 5861 5862 5864 5865 5866 5867
5801 5801 5800 5800 5800 5801 5801 5802 5803 5803 5804 5805 5806 5806 5807 5808 5808 5809 5809 5809 5810 5810 5810 5811 5811 5811 5812 5812 5812 5812 5812 5811 5811 5810 5810 5810 5810 5811 5812 5812 5812 5812 5813 5813 5813 5814 5816 5818 5819 5820 5821 5823 5823 5824 5825 5826 5827 5829 5831 5833 5835 5837 5838 5840 5841 5842 5843 5844 5845 5846 5847 5849 5851 5852 5853 5855 5856 5857 5858 5859 5860 5861 5862 5863 5864
5799 5799 5798 5798 5798 5798 5799 5799 5800 5801 5802 5803 5803 5804 5805 5806 5806 5807 5807 5807 5808 5808 5809 5809 5809 5810 5810 5810 5810 5810 5809 5809 5808 5808 5807 5807 5809 5810 5810 5810 5810 5811 5811 5811 5812 5813 5814 5815 5817 5817 5819 5821 5821 5822 5823 5824 5825 5826 5828 5830 5832 5835 5836 5838 5839 5840 5841 5842 5843 5844 5845 5847 5848 5850 5851 5852 5853 5854 5855 5856 5857 5858 5859 5860 5862
5796 5796 5796 5796 5796 5796 5797 5797 5798 5798 5799 5800 5801 5802 5803 5803 5804 5804 5805 5805 5806 5806 5807 5807 5807 5808 5808 5808 5808 5807 5807 5806 5806 5805 5805 5805 5807 5808 5808 5807 5808 5809 5810 5810 5810 5810 5811 5813 5814 5815 5816 5818 5819 5820 5822 5822 5823 5824 5826 5828 5830 5832 5834 5836 5837 5838 5839 5840 5841 5842 5843 5844 5846 5847 5848 5850 5851 5851 5852 5853 5854 5856 5857 5858 5859
5794 5794 5794 5794 5794 5795 5795 5795 5796 5796 5797 5798 5799 5799 5800 5801 5802 5802 5803 5803 5804 5804 5805 5805 5805 5806 5806 5806 5806 5805 5805 5804 5804 5803 5802 5803 5805 5806 5804 5805 5806 5807 5807 5807 5807 5807 5808 5810 5811 5813 5814 5815 5817 5817 5819 5820 5821 5822 5823 5826 5828 5830 5831 5833 5835 5836 5837 5838 5839 5840 5841 5842 5843 5844 5846 5847 5848 5849 5850 5851 5852 5853 5855 5856 5857
5791 5791 5792 5792 5793 5793 5793 5794 5794 5795 5795 5796 5796 5797 5798 5799 5799 5800 5801 5802 5802 5802 5803 5803 5803 5803 5803 5803 5803 5803 5802 5801 5801 5801 5800 5801 5804 5803 5802 5803 5804 5804 5804 5804 5804 5805 5805 5807 5808 5810 5811 5812 5814 5815 5816 5818 5819 5820 5821 5823 5825 5827 5828 5830 5832 5834 5835 5836 5837 5838 5839 5840 5841 5842 5844 5845 5846 5847 5848 5849 5850 5851 5853 5854 5855
5789 5789 5789 5790 5790 5791 5791 5792 5792 5793 5793 5794 5794 5795 5796 5797 5797 5798 5799 5799 5800 5800 5800 5801 5801 5801 5801 5801 5801 5800 5800 5799 5799 5798 5798 5800 5801 5801 5801 5801 5802 5802 5802 5802 5802 5803 5803 5804 5805 5806 5807 5809 5811 5813 5814 5815 5817 5819 5819 5820 5822 5824 5826 5828 5830 5831 5833 5834 5835 5836 5837 5838 5839 5840 5841 5842 5844 5845 5846 5846 5848 5849 5850 5851 5853
5786 5787 5787 5787 5788 5788 5789 5789 5790 5790 5791 5792 5792 5793 5794 5795 5795 5796 5797 5797 5798 5798 5798 5798 5799 5799 5798 5798 5798 5798 5797 5797 5797 5796 5796 5797 5799 5799 5799 5799 5800 5800 5799 5800 5800 5801 5802 5802 5803 5804 5805 5806 5808 5810 5811 5813 5814 5816 5817 5818 5819 5821 5823 5825 5827 5828 5830 5831 5833 5834 5835 5836 5837 5838 5839 5840 5841 5842 5843 5844 5845 5846 5848 5849 5850
5784 5784 5784 5785 5785 5786 5786 5787 5787 5788 5789 5789 5790 5791 5792 5792 5793 5794 5794 5795 5795 5795 5795 5795 5796 5796 5796 5796 5796 5795 5795 5795 5795 5794 5794 5794 5795 5796 5797 5797 5798 5798 5797 5798 5799 5800 5800 5800 5801 5802 5803 5804 5805 5807 5808 5810 5811 5813 5815 5816 5817 5818 5820 5822 5824 5825 5827 5829 5830 5831 5832 5833 5834 5835 5837 5838 5839 5840 5841 5842 5843 5844 5845 5846 5847
5781 5781 5782 5782 5783 5783 5784 5784 5785 5785 5786 5787 5787 5788 5789 5790 5791 5791 5792 5792 5792 5792 5792 5792 5793 5793 5793 5793 5793 5793 5793 5792 5792 5792 5791 5791 5792 5794 5795 5796 5796 5796 5796 5797 5798 5799 5798 5799 5799 5800 5801 5802 5803 5804 5805 5807 5809 5810 5812 5813 5815 5816 5817 5819 5821 5822 5824 5826 5827 5828 5830 5831 5832 5833 5834 5835 5836 5837 5838 5839 5841 5842 5843 5844 5845
5778 5779 5779 5780 5780 5781 5781 5782 5782 5783 5784 5784 5785 5785 5786 5787 5788 5788 5789 5789 5789 5789 5789 5790 5790 5790 5791 5791 5791 5791 5790 5789 5789 5789 5789 5789 5790 5791 5792 5793 5794 5794 5795 5795 5796 5797 5797 5797 5798 5798 5798 5800 5801 5801 5803 5804 5806 5808 5809 5810 5812 5813 5814 5816 5817 5819 5821 5823 5824 5826 5827 5828 5829 5830 5831 5832 5833 5835 5836 5837 5839 5840 5840 5841 5842
5776 5776 5776 5776 5777 5778 5779 5779 5780 5780 5781 5782 5782 5783 5783 5784 5785 5785 5786 5786 5786 5786 5786 5787 5787 5787 5788 5788 5788 5788 5787 5787 5786 5786 5787 5787 5787 5788 5789 5791 5791 5791 5793 5793 5794 5795 5795 5795 5795 5795 5796 5797 5798 5799 5800 5801 5803 5804 5805 5807 5808 5810 5811 5812 5814 5816 5818 5819 5821 5823 5824 5825 5827 5828 5829 5830 5831 5832 5834 5835 5836 5837 5838 5839 5840
5773 5773 5773 5773 5774 5775 5776 5777 5777 5778 5778 5779 5779 5780 5780 5781 5781 5782 5782 5783 5783 5783 5783 5784 5784 5784 5785 5785 5785 5785 5785 5784 5784 5784 5784 5784 5785 5785 5786 5788 5789 5789 5790 5791 5791 5792 5793 5793 5793 5793 5794 5794 5795 5796 5797 5798 5799 5800 5802 5803 5805 5806 5808 5809 5810 5812 5814 5815 5817 5819 5821 5822 5824 5825 5826 5827 5828 5830 5831 5832 5833 5835 5836 5837 5838
5770 5769 5769 5770 5770 5771 5772 5774 5774 5775 5776 5776 5777 5777 5777 5778 5778 5778 5779 5779 5779 5780 5780 5781 5781 5781 5781 5781 5782 5782 5781 5781 5781 5782 5782 5782 5782 5782 5783 5785 5786 5787 5787 5787 5788 5789 5790 5790 5790 5791 5792 5792 5792 5793 5794 5795 5795 5797 5798 5799 5801 5803 5804 5805 5807 5808 5810 5811 5813 5815 5817 5819 5820 5821 5823 5824 5825 5827 5828 5829 5830 5832 5833 5835 5836
5767 5766 5766 5766 5767 5768 5769 5770 5771 5772 5773 5773 5774 5774 5774 5775 5775 5775 5775 5776 5776 5776 5777 5778 5778 5778 5778 5778 5778 5778 5778 5778 5778 5779 5779 5779 5779 5779 5780 5781 5782 5784 5784 5784 5785 5786 5787 5788 5788 5789 5789 5789 5790 5790 5790 5791 5791 5793 5795 5795 5797 5798 5800 5801 5802 5804 5806 5808 5810 5812 5813 5815 5816 5818 5819 5821 5822 5824 5825 5826 5827 5829 5830 5832 5833
5763 5762 5762 5763 5764 5765 5766 5767 5768 5769 5769 5770 5770 5771 5771 5771 5771 5772 5772 5772 5773 5773 5774 5774 5774 5774 5775 5775 5775 5775 5775 5775 5776 5776 5776 5776 5776 5776 5777 5778 5779 5780 5781 5781 5782 5783 5784 5785 5785 5785 5786 5786 5787 5787 5787 5788 5789 5790 5791 5791 5793 5794 5796 5797 5799 5801 5803 5805 5806 5808 5809 5811 5813 5814 5816 5818 5819 5820 5822 5823 5825 5826 5827 5829 5830
5760 5759 5759 5759 5760 5762 5763 5763 5764 5765 5766 5766 5766 5767 5768 5768 5768 5768 5769 5769 5769 5770 5770 5770 5771 5771 5771 5771 5772 5772 5772 5772 5773 5773 5774 5773 5773 5774 5774 5775 5776 5777 5778 5778 5778 5779 5780 5782 5782 5782 5783 5784 5784 5784 5784 5785 5786 5787 5788 5789 5790 5790 5791 5792 5794 5797 5799 5801 5803 5804 5806 5808 5809 5812 5814 5815 5816 5817 5819 5820 5822 5823 5824 5826 5827
5757 5756 5755 5756 5757 5759 5760 5760 5761 5762 5763 5763 5763 5764 5764 5764 5765 5765 5765 5766 5766 5766 5767 5767 5767 5768 5768 5768 5768 5769 5769 5769 5770 5770 5771 5771 5770 5771 5771 5772 5773 5774 5775 5775 5775 5776 5777 5778 5779 5780 5781 5781 5782 5782 5782 5782 5783 5784 5785 5786 5787 5788 5788 5789 5790 5792 5795 5798 5800 5801 5803 5805 5807 5809 5811 5812 5813 5814 5816 5817 5819 5820 5821 5823 5824
5754 5753 5753 5753 5754 5755 5756 5757 5758 5759 5759 5759 5760 5760 5761 5761 5761 5762 5762 5762 5763 5763 5763 5764 5764 5765 5765 5765 5765 5765 5766 5766 5767 5767 5767 5768 5767 5768 5768 5769 5769 5770 5772 5773 5773 5773 5774 5775 5776 5777 5778 5779 5780 5780 5780 5780 5781 5781 5782 5783 5784 5785 5786 5787 5787 5789 5791 5794 5796 5798 5800 5802 5804 5806 5807 5809 5810 5811 5812 5813 5815 5817 5818 5820 5821
5751 5750 5750 5751 5751 5752 5753 5754 5754 5755 5756 5756 5756 5757 5757 5758 5758 5759 5759 5759 5760 5760 5760 5761 5761 5762 5762 5762 5762 5762 5763 5763 5763 5764 5764 5764 5764 5764 5765 5765 5766 5767 5768 5770 5770 5770 5770 5771 5772 5773 5774 5775 5776 5777 5778 5778 5778 5779 5780 5780 5781 5783 5784 5784 5785 5786 5788 5790 5793 5795 5797 5798 5800 5802 5803 5804 5806 5807 5808 5810 5811 5813 5814 5816 5817
5748 5747 5748 5749 5749 5750 5750 5750 5751 5752 5752 5753 5753 5753 5755 5755 5756 5756 5756 5756 5757 5757 5758 5758 5758 5758 5759 5759 5759 5759 5760 5760 5760 5761 5761 5761 5761 5761 5762 5762 5763 5764 5765 5766 5767 5767 5767 5768 5769 5770 5771 5772 5773 5773 5774 5775 5776 5777 5777 5778 5779 5780 5781 5782 5783 5784 5785 5787 5789 5791 5793 5794 5795 5797 5799 5800 5802 5803 5805 5806 5807 5808 5810 5811 5812
5745 5744 5745 5746 5747 5747 5747 5747 5748 5748 5749 5749 5749 5750 5752 5752 5753 5753 5753 5753 5754 5754 5755 5755 5755 5756 5756 5756 5756 5757 5757 5757 5757 5758 5758 5758 5759 5759 5759 5759 5760 5761 5762 5763 5764 5764 5764 5765 5766 5767 5768 5768 5770 5770 5771 5772 5773 5774 5775 5776 5777 5778 5778 5779 5781 5782 5782 5784 5786 5788 5789 5790 5792 5793 5794 5796 5797 5799 5801 5802 5803 5804 5805 5806 5807
5743 5742 5743 5743 5744 5744 5744 5744 5745 5745 5746 5746 5746 5747 5748 5749 5750 5750 5751 5751 5751 5752 5752 5753 5753 5753 5753 5753 5754 5754 5754 5754 5754 5755 5755 5756 5756 5756 5756 5757 5757 5758 5759 5760 5761 5761 5762 5762 5763 5764 5765 5765 5766 5767 5768 5769 5770 5771 5772 5773 5774 5775 5776 5777 5778 5779 5780 5781 5783 5784 5786 5787 5788 5789 5791 5793 5794 5795 5796 5797 5798 5799 5800 5801 5802
5740 5739 5740 5740 5740 5741 5742 5742 5742 5743 5743 5743 5744 5745 5745 5746 5747 5747 5748 5748 5749 5749 5749 5750 5750 5750 5750 5751 5751 5751 5751 5751 5751 5752 5752 5753 5753 5754 5754 5754 5755 5756 5756 5757 5758 5759 5759 5759 5760 5760 5761 5762 5763 5764 5765 5766 5767 5768 5769 5770 5771 5772 5773 5774 5775 5776 5777 5778 5779 5780 5782 5783 5784 5785 5787 5788 5789 5790 5792 5793 5794 5795 5795 5796 5797
5737 5737 5737 5737 5737 5738 5739 5740 5740 5740 5740 5741 5741 5742 5743 5743 5744 5744 5745 5745 5746 5746 5747 5747 5747 5747 5748 5748 5748 5749 5749 5749 5749 5749 5749 5750 5751 5751 5752 5752 5752 5753 5754 5754 5755 5756 5756 5757 5757 5757 5758 5759 5760 5761 5762 5762 5763 5764 5765 5766 5767 5768 5769 5770 5771 5773 5773 5774 5776 5776 5777 5778 5779 5780 5782 5783 5784 5786 5787 5788 5789 5790 5791 5792 5793